QPF
0.01 0.01 0.01 0.01 0.03 0.03 0.05 0.05 0.05 0.06 0.05 0.04 0.04 0.04 0.04 0.04 0.05 0.05 0.06 0.07 0.08 0.09 0.08 0.09 0.09 0.12 0.08 0.06 0.07 0.07 0.05 0.06 0.04 0.06 0.19 0.27 0.11 0.08 0.10 0.07 0.05 0.04 0.04
0.01 0.00 0.01 0.01 0.01 0.02 0.03 0.03 0.02 0.04 0.04 0.04 0.06 0.07 0.07 0.05 0.06 0.06 0.04 0.04 0.05 0.06 0.10 0.12 0.11 0.11 0.09 0.07 0.08 0.08 0.08 0.06 0.04 0.08 0.20 0.39 0.25 0.15 0.13 0.10 0.08 0.06 0.06
0.01 0.00 0.01 0.01 0.01 0.01 0.01 0.02 0.01 0.03 0.04 0.04 0.06 0.06 0.05 0.06 0.06 0.05 0.04 0.05 0.04 0.03 0.06 0.09 0.10 0.10 0.09 0.09 0.11 0.12 0.14 0.21 0.18 0.17 0.24 0.37 0.36 0.23 0.14 0.10 0.07 0.07 0.06
0.00 0.00 0.01 0.01 0.01 0.01 0.01 0.01 0.02 0.04 0.05 0.04 0.04 0.04 0.04 0.04 0.05 0.05 0.05 0.05 0.05 0.03 0.03 0.04 0.06 0.06 0.09 0.09 0.10 0.10 0.11 0.14 0.17 0.19 0.24 0.30 0.32 0.25 0.15 0.09 0.06 0.06 0.06
0.01 0.01 0.01 0.00 0.00 0.00 0.01 0.01 0.02 0.04 0.04 0.03 0.02 0.02 0.03 0.03 0.04 0.04 0.04 0.04 0.04 0.03 0.02 0.03 0.04 0.03 0.06 0.09 0.09 0.08 0.08 0.07 0.05 0.05 0.11 0.19 0.23 0.22 0.15 0.11 0.08 0.07 0.06
0.01 0.01 0.01 0.01 0.00 0.01 0.02 0.01 0.03 0.04 0.04 0.03 0.02 0.01 0.02 0.03 0.03 0.03 0.04 0.03 0.03 0.02 0.02 0.02 0.03 0.04 0.03 0.05 0.05 0.06 0.05 0.06 0.05 0.04 0.06 0.11 0.14 0.16 0.16 0.14 0.12 0.09 0.06
0.01 0.00 0.00 0.00 0.01 0.01 0.02 0.01 0.02 0.02 0.03 0.03 0.03 0.02 0.02 0.02 0.01 0.02 0.03 0.03 0.02 0.02 0.02 0.02 0.01 0.02 0.01 0.01 0.02 0.03 0.04 0.06 0.05 0.03 0.03 0.05 0.08 0.12 0.13 0.13 0.11 0.09 0.07
0.00 0.00 0.00 0.01 0.01 0.02 0.01 0.01 0.02 0.04 0.03 0.03 0.05 0.05 0.03 0.02 0.02 0.01 0.01 0.02 0.02 0.01 0.02 0.02 0.01 0.01 0.01 0.01 0.01 0.02 0.04 0.06 0.05 0.04 0.02 0.02 0.03 0.07 0.10 0.10 0.10 0.10 0.08
0.01 0.01 0.00 0.00 0.01 0.02 0.02 0.02 0.03 0.05 0.05 0.04 0.05 0.06 0.06 0.04 0.03 0.01 0.01 0.01 0.01 0.01 0.01 0.01 0.01 0.01 0.01 0.01 0.01 0.01 0.01 0.02 0.04 0.04 0.03 0.02 0.02 0.03 0.05 0.07 0.09 0.09 0.07
0.00 0.01 0.02 0.01 0.01 0.02 0.03 0.02 0.03 0.05 0.06 0.04 0.04 0.04 0.04 0.03 0.03 0.02 0.01 0.01 0.01 0.01 0.01 0.01 0.01 0.01 0.01 0.01 0.01 0.01 0.00 0.01 0.04 0.04 0.03 0.04 0.03 0.03 0.04 0.04 0.05 0.06 0.07
0.00 0.01 0.02 0.01 0.01 0.03 0.03 0.02 0.02 0.03 0.05 0.04 0.04 0.04 0.04 0.03 0.03 0.02 0.02 0.01 0.01 0.01 0.01 0.01 0.01 0.01 0.01 0.01 0.01 0.02 0.02 0.01 0.02 0.03 0.03 0.04 0.03 0.03 0.04 0.03 0.02 0.02 0.04
0.00 0.00 0.00 0.00 0.00 0.01 0.01 0.01 0.01 0.03 0.03 0.03 0.03 0.04 0.05 0.04 0.04 0.03 0.02 0.01 0.01 0.01 0.01 0.01 0.01 0.01 0.01 0.01 0.00 0.02 0.02 0.02 0.02 0.02 0.02 0.02 0.03 0.03 0.04 0.04 0.04 0.04 0.04
0.01 0.01 0.01 0.01 0.00 0.00 0.00 0.00 0.00 0.01 0.02 0.02 0.03 0.03 0.03 0.03 0.03 0.03 0.03 0.01 0.01 0.01 0.01 0.01 0.01 0.01 0.01 0.01 0.01 0.02 0.03 0.02 0.01 0.01 0.01 0.01 0.01 0.01 0.02 0.03 0.04 0.06 0.06
0.00 0.00 0.00 0.00 0.00 0.00 0.00 0.00 0.00 0.00 0.01 0.02 0.02 0.02 0.03 0.02 0.01 0.01 0.02 0.02 0.01 0.01 0.01 0.01 0.02 0.01 0.01 0.01 0.01 0.01 0.02 0.02 0.01 0.01 0.01 0.01 0.00 0.00 0.00 0.01 0.02 0.03 0.05
0.00 0.00 0.00 0.00 0.00 0.00 0.00 0.00 0.00 0.00 0.00 0.01 0.01 0.01 0.02 0.01 0.00 0.01 0.01 0.01 0.01 0.02 0.01 0.02 0.03 0.03 0.02 0.02 0.01 0.01 0.01 0.03 0.02 0.01 0.01 0.01 0.01 0.00 0.00 0.01 0.01 0.01 0.02
0.00 0.00 0.00 0.00 0.00 0.00 0.00 0.00 0.00 0.00 0.00 0.00 0.00 0.01 0.01 0.01 0.01 0.01 0.01 0.01 0.01 0.01 0.02 0.02 0.03 0.04 0.02 0.01 0.01 0.01 0.01 0.01 0.01 0.01 0.00 0.00 0.00 0.01 0.01 0.01 0.00 0.01 0.01
0.00 0.00 0.00 0.00 0.00 0.00 0.00 0.00 0.00 0.00 0.00 0.00 0.00 0.00 0.00 0.00 0.01 0.01 0.02 0.01 0.01 0.02 0.02 0.03 0.03 0.04 0.03 0.00 0.01 0.01 0.01 0.01 0.01 0.01 0.01 0.01 0.01 0.01 0.01 0.01 0.00 0.00 0.01
0.00 0.00 0.00 0.00 0.00 0.00 0.00 0.00 0.00 0.00 0.00 0.00 0.00 0.00 0.00 0.00 0.01 0.01 0.01 0.01 0.01 0.02 0.02 0.03 0.06 0.06 0.03 0.01 0.00 0.01 0.01 0.01 0.02 0.02 0.02 0.01 0.01 0.00 0.00 0.00 0.00 0.00 0.00
0.00 0.00 0.00 0.00 0.00 0.00 0.00 0.00 0.01 0.01 0.00 0.00 0.00 0.00 0.00 0.00 0.00 0.00 0.01 0.01 0.01 0.01 0.01 0.01 0.04 0.04 0.01 0.00 0.00 0.00 0.01 0.00 0.00 0.01 0.02 0.01 0.01 0.00 0.00 0.00 0.00 0.00 0.00
0.00 0.00 0.00 0.00 0.00 0.00 0.00 0.00 0.01 0.01 0.00 0.00 0.00 0.00 0.00 0.00 0.00 0.00 0.00 0.00 0.00 0.00 0.00 0.00 0.02 0.01 0.01 0.00 0.01 0.01 0.00 0.00 0.00 0.00 0.00 0.00 0.00 0.00 0.00 0.00 0.00 0.00 0.00
0.00 0.00 0.00 0.00 0.00 0.00 0.00 0.00 0.01 0.01 0.00 0.00 0.00 0.00 0.00 0.00 0.00 0.00 0.00 0.00 0.00 0.01 0.01 0.00 0.01 0.01 0.01 0.01 0.01 0.01 0.01 0.01 0.01 0.00 0.00 0.00 0.00 0.00 0.00 0.00 0.00 0.00 0.00
0.00 0.00 0.00 0.00 0.00 0.00 0.00 0.00 0.00 0.00 0.00 0.00 0.00 0.00 0.00 0.00 0.00 0.00 0.00 0.00 0.00 0.01 0.01 0.00 0.00 0.00 0.00 0.00 0.01 0.01 0.01 0.02 0.02 0.02 0.01 0.00 0.00 0.00 0.00 0.00 0.00 0.00 0.00
0.01 0.00 0.00 0.00 0.00 0.00 0.00 0.00 0.00 0.00 0.00 0.00 0.00 0.00 0.00 0.00 0.00 0.00 0.00 0.00 0.00 0.00 0.00 0.00 0.00 0.00 0.00 0.00 0.00 0.01 0.01 0.01 0.03 0.03 0.02 0.02 0.01 0.01 0.01 0.01 0.01 0.01 0.00
0.01 0.01 0.00 0.00 0.00 0.00 0.00 0.00 0.00 0.00 0.00 0.00 0.00 0.00 0.00 0.00 0.00 0.00 0.00 0.00 0.00 0.00 0.00 0.00 0.00 0.00 0.00 0.00 0.00 0.00 0.00 0.00 0.01 0.01 0.02 0.02 0.02 0.02 0.02 0.01 0.01 0.01 0.01
0.02 0.02 0.01 0.00 0.00 0.00 0.00 0.00 0.00 0.00 0.00 0.00 0.00 0.00 0.00 0.00 0.00 0.00 0.00 0.00 0.00 0.00 0.00 0.00 0.00 0.00 0.00 0.00 0.00 0.00 0.00 0.00 0.00 0.00 0.01 0.01 0.02 0.03 0.02 0.02 0.01 0.01 0.01
0.03 0.02 0.01 0.01 0.01 0.00 0.00 0.00 0.00 0.00 0.01 0.01 0.00 0.00 0.00 0.00 0.00 0.00 0.00 0.00 0.00 0.00 0.00 0.00 0.00 0.00 0.00 0.01 0.00 0.00 0.00 0.00 0.00 0.00 0.00 0.00 0.01 0.01 0.01 0.01 0.01 0.02 0.02
MSLP
1014.87 1015.03 1015.10 1015.13 1015.12 1015.11 1015.11 1015.13 1015.16 1015.18 1015.19 1015.18 1015.14 1015.07 1014.96 1014.80 1014.58 1014.26 1013.81 1013.24 1012.54 1011.78 1010.99 1010.29 1009.76 1009.49 1009.52 1009.84 1010.41 1011.16 1011.97 1012.76 1013.42 1013.93 1014.27 1014.46 1014.55 1014.59 1014.60 1014.62 1014.65 1014.68 1014.70
1015.16 1015.31 1015.40 1015.47 1015.51 1015.54 1015.58 1015.63 1015.68 1015.71 1015.72 1015.69 1015.61 1015.50 1015.33 1015.11 1014.80 1014.40 1013.89 1013.25 1012.52 1011.74 1010.97 1010.30 1009.83 1009.61 1009.68 1010.03 1010.62 1011.36 1012.16 1012.92 1013.57 1014.07 1014.40 1014.59 1014.69 1014.73 1014.76 1014.77 1014.78 1014.79 1014.79
1015.47 1015.60 1015.71 1015.81 1015.90 1015.99 1016.08 1016.17 1016.25 1016.29 1016.30 1016.25 1016.14 1015.98 1015.76 1015.48 1015.11 1014.65 1014.09 1013.43 1012.71 1011.95 1011.23 1010.63 1010.22 1010.05 1010.16 1010.52 1011.08 1011.78 1012.52 1013.22 1013.81 1014.26 1014.58 1014.77 1014.88 1014.94 1014.97 1015.01 1015.03 1015.04 1015.03
1015.78 1015.88 1015.99 1016.11 1016.24 1016.39 1016.53 1016.67 1016.78 1016.84 1016.84 1016.78 1016.65 1016.46 1016.21 1015.89 1015.49 1015.02 1014.45 1013.82 1013.13 1012.44 1011.80 1011.28 1010.93 1010.82 1010.93 1011.27 1011.78 1012.39 1013.03 1013.63 1014.13 1014.52 1014.80 1014.98 1015.10 1015.18 1015.25 1015.30 1015.35 1015.38 1015.38
1016.04 1016.12 1016.22 1016.35 1016.51 1016.69 1016.88 1017.05 1017.18 1017.27 1017.28 1017.21 1017.09 1016.89 1016.63 1016.31 1015.93 1015.48 1014.96 1014.39 1013.78 1013.19 1012.65 1012.22 1011.94 1011.85 1011.97 1012.26 1012.67 1013.17 1013.68 1014.16 1014.55 1014.85 1015.08 1015.23 1015.35 1015.45 1015.54 1015.64 1015.72 1015.77 1015.80
1016.27 1016.30 1016.38 1016.51 1016.68 1016.89 1017.10 1017.29 1017.44 1017.54 1017.56 1017.51 1017.40 1017.23 1017.00 1016.73 1016.40 1016.03 1015.60 1015.13 1014.64 1014.16 1013.72 1013.38 1013.16 1013.10 1013.19 1013.41 1013.72 1014.09 1014.46 1014.79 1015.06 1015.27 1015.41 1015.53 1015.64 1015.74 1015.86 1015.98 1016.09 1016.17 1016.22
1016.45 1016.45 1016.50 1016.61 1016.79 1016.99 1017.21 1017.40 1017.56 1017.66 1017.70 1017.67 1017.59 1017.47 1017.31 1017.12 1016.89 1016.62 1016.31 1015.97 1015.60 1015.25 1014.92 1014.66 1014.50 1014.44 1014.49 1014.64 1014.84 1015.08 1015.31 1015.50 1015.65 1015.76 1015.83 1015.90 1015.97 1016.07 1016.18 1016.31 1016.44 1016.55 1016.62
1016.62 1016.58 1016.61 1016.71 1016.86 1017.05 1017.25 1017.43 1017.58 1017.68 1017.73 1017.73 1017.70 1017.65 1017.57 1017.47 1017.35 1017.21 1017.03 1016.83 1016.59 1016.35 1016.13 1015.94 1015.81 1015.76 1015.78 1015.85 1015.96 1016.08 1016.19 1016.27 1016.31 1016.33 1016.33 1016.34 1016.37 1016.43 1016.53 1016.65 1016.78 1016.89 1016.97
1016.78 1016.73 1016.74 1016.82 1016.95 1017.11 1017.28 1017.44 1017.57 1017.66 1017.71 1017.74 1017.76 1017.77 1017.78 1017.78 1017.78 1017.75 1017.70 1017.61 1017.49 1017.35 1017.21 1017.08 1016.97 1016.92 1016.90 1016.92 1016.96 1017.00 1017.03 1017.02 1016.99 1016.94 1016.88 1016.84 1016.83 1016.85 1016.91 1016.99 1017.09 1017.20 1017.28
1016.95 1016.90 1016.90 1016.97 1017.08 1017.21 1017.35 1017.48 1017.58 1017.65 1017.70 1017.75 1017.80 1017.86 1017.94 1018.03 1018.12 1018.20 1018.24 1018.25 1018.22 1018.15 1018.06 1017.97 1017.88 1017.82 1017.79 1017.77 1017.77 1017.77 1017.75 1017.71 1017.64 1017.55 1017.46 1017.38 1017.33 1017.30 1017.32 1017.35 1017.41 1017.48 1017.55
1017.09 1017.06 1017.08 1017.15 1017.24 1017.36 1017.47 1017.57 1017.64 1017.69 1017.73 1017.78 1017.85 1017.95 1018.08 1018.22 1018.38 1018.52 1018.63 1018.70 1018.72 1018.70 1018.64 1018.57 1018.49 1018.43 1018.39 1018.36 1018.34 1018.33 1018.30 1018.26 1018.19 1018.11 1018.01 1017.92 1017.83 1017.77 1017.73 1017.73 1017.74 1017.77 1017.80
1017.19 1017.20 1017.24 1017.33 1017.43 1017.53 1017.63 1017.70 1017.75 1017.78 1017.81 1017.85 1017.92 1018.03 1018.18 1018.35 1018.53 1018.71 1018.85 1018.95 1019.00 1018.99 1018.96 1018.89 1018.82 1018.76 1018.71 1018.68 1018.67 1018.67 1018.66 1018.65 1018.61 1018.55 1018.47 1018.38 1018.29 1018.21 1018.14 1018.09 1018.05 1018.03 1018.03
1017.21 1017.27 1017.35 1017.47 1017.59 1017.70 1017.79 1017.85 1017.89 1017.91 1017.92 1017.95 1018.01 1018.11 1018.26 1018.43 1018.61 1018.79 1018.95 1019.05 1019.11 1019.11 1019.08 1019.02 1018.94 1018.88 1018.83 1018.80 1018.80 1018.82 1018.84 1018.85 1018.85 1018.83 1018.79 1018.73 1018.65 1018.56 1018.47 1018.40 1018.33 1018.27 1018.23
1017.15 1017.26 1017.39 1017.54 1017.69 1017.82 1017.92 1017.99 1018.03 1018.04 1018.05 1018.07 1018.12 1018.21 1018.33 1018.49 1018.66 1018.83 1018.97 1019.08 1019.14 1019.14 1019.11 1019.04 1018.97 1018.90 1018.84 1018.81 1018.81 1018.83 1018.86 1018.90 1018.93 1018.95 1018.94 1018.91 1018.86 1018.79 1018.70 1018.61 1018.53 1018.45 1018.39
1017.02 1017.17 1017.35 1017.54 1017.73 1017.89 1018.02 1018.10 1018.15 1018.17 1018.18 1018.20 1018.24 1018.31 1018.42 1018.56 1018.71 1018.87 1019.01 1019.11 1019.17 1019.18 1019.16 1019.09 1019.01 1018.93 1018.85 1018.80 1018.77 1018.77 1018.79 1018.83 1018.87 1018.90 1018.92 1018.92 1018.90 1018.85 1018.78 1018.70 1018.62 1018.53 1018.45
1016.88 1017.07 1017.28 1017.51 1017.73 1017.92 1018.08 1018.19 1018.26 1018.30 1018.32 1018.34 1018.38 1018.45 1018.54 1018.67 1018.82 1018.97 1019.10 1019.21 1019.28 1019.31 1019.29 1019.24 1019.15 1019.05 1018.95 1018.85 1018.78 1018.73 1018.70 1018.70 1018.72 1018.73 1018.76 1018.77 1018.77 1018.74 1018.70 1018.64 1018.57 1018.49 1018.41
1016.78 1017.00 1017.24 1017.49 1017.73 1017.96 1018.14 1018.28 1018.37 1018.43 1018.48 1018.52 1018.56 1018.63 1018.73 1018.85 1018.99 1019.15 1019.29 1019.41 1019.50 1019.55 1019.55 1019.50 1019.41 1019.29 1019.16 1019.01 1018.87 1018.74 1018.65 1018.57 1018.53 1018.51 1018.50 1018.50 1018.50 1018.49 1018.47 1018.43 1018.37 1018.31 1018.24
1016.79 1017.02 1017.28 1017.54 1017.80 1018.03 1018.23 1018.39 1018.51 1018.60 1018.66 1018.72 1018.79 1018.87 1018.97 1019.10 1019.24 1019.39 1019.54 1019.68 1019.79 1019.86 1019.88 1019.85 1019.77 1019.63 1019.46 1019.27 1019.05 1018.85 1018.66 1018.50 1018.37 1018.28 1018.22 1018.18 1018.16 1018.15 1018.14 1018.11 1018.07 1018.02 1017.96
1016.93 1017.17 1017.43 1017.69 1017.95 1018.18 1018.39 1018.55 1018.69 1018.80 1018.89 1018.97 1019.05 1019.15 1019.26 1019.38 1019.52 1019.67 1019.82 1019.97 1020.09 1020.17 1020.22 1020.20 1020.13 1019.99 1019.81 1019.58 1019.31 1019.03 1018.76 1018.51 1018.30 1018.12 1018.00 1017.91 1017.85 1017.81 1017.78 1017.75 1017.72 1017.67 1017.61
1017.18 1017.42 1017.68 1017.94 1018.18 1018.40 1018.60 1018.77 1018.91 1019.03 1019.14 1019.24 1019.34 1019.44 1019.55 1019.67 1019.80 1019.93 1020.07 1020.21 1020.33 1020.42 1020.47 1020.48 1020.43 1020.31 1020.13 1019.89 1019.60 1019.28 1018.96 1018.64 1018.35 1018.10 1017.90 1017.74 1017.63 1017.55 1017.49 1017.44 1017.38 1017.33 1017.26
1017.48 1017.74 1018.00 1018.24 1018.47 1018.67 1018.85 1019.01 1019.15 1019.28 1019.40 1019.52 1019.62 1019.73 1019.84 1019.95 1020.05 1020.16 1020.26 1020.36 1020.47 1020.55 1020.61 1020.64 1020.62 1020.53 1020.39 1020.17 1019.90 1019.58 1019.23 1018.88 1018.54 1018.24 1017.97 1017.76 1017.58 1017.45 1017.33 1017.24 1017.15 1017.06 1016.96
1017.78 1018.05 1018.31 1018.54 1018.75 1018.93 1019.09 1019.24 1019.38 1019.52 1019.65 1019.78 1019.90 1020.01 1020.11 1020.20 1020.27 1020.33 1020.39 1020.45 1020.52 1020.58 1020.64 1020.68 1020.70 1020.66 1020.57 1020.41 1020.19 1019.91 1019.59 1019.25 1018.90 1018.56 1018.26 1017.98 1017.75 1017.55 1017.37 1017.22 1017.07 1016.93 1016.78
1017.99 1018.30 1018.56 1018.79 1018.99 1019.15 1019.30 1019.44 1019.58 1019.73 1019.88 1020.03 1020.16 1020.29 1020.38 1020.45 1020.49 1020.51 1020.52 1020.53 1020.54 1020.58 1020.63 1020.68 1020.72 1020.74 1020.72 1020.64 1020.50 1020.29 1020.03 1019.73 1019.40 1019.06 1018.73 1018.41 1018.12 1017.86 1017.62 1017.40 1017.18 1016.98 1016.77
1018.11 1018.44 1018.72 1018.96 1019.15 1019.31 1019.46 1019.60 1019.75 1019.92 1020.09 1020.27 1020.44 1020.58 1020.69 1020.75 1020.77 1020.75 1020.72 1020.67 1020.65 1020.65 1020.67 1020.73 1020.80 1020.87 1020.91 1020.91 1020.86 1020.74 1020.55 1020.30 1020.01 1019.69 1019.35 1019.01 1018.68 1018.37 1018.07 1017.77 1017.49 1017.21 1016.93
1018.14 1018.51 1018.81 1019.06 1019.26 1019.43 1019.58 1019.74 1019.92 1020.11 1020.33 1020.55 1020.77 1020.95 1021.08 1021.15 1021.17 1021.14 1021.07 1020.99 1020.93 1020.89 1020.89 1020.94 1021.02 1021.12 1021.21 1021.28 1021.29 1021.25 1021.13 1020.94 1020.69 1020.39 1020.05 1019.71 1019.34 1018.99 1018.63 1018.28 1017.94 1017.59 1017.25
1018.17 1018.56 1018.89 1019.15 1019.37 1019.55 1019.73 1019.91 1020.12 1020.36 1020.63 1020.91 1021.17 1021.41 1021.58 1021.70 1021.73 1021.71 1021.64 1021.54 1021.45 1021.38 1021.36 1021.39 1021.46 1021.56 1021.67 1021.76 1021.81 1021.81 1021.73 1021.58 1021.36 1021.08 1020.75 1020.40 1020.02 1019.63 1019.24 1018.85 1018.46 1018.07 1017.67
Thickness
5732 5731 5730 5728 5727 5726 5725 5724 5724 5724 5724 5723 5724 5723 5723 5723 5723 5724 5724 5725 5726 5727 5729 5731 5733 5734 5735 5737 5738 5739 5741 5744 5745 5746 5747 5749 5750 5751 5752 5753 5754 5755 5756
5731 5730 5728 5726 5725 5724 5723 5722 5721 5720 5720 5719 5719 5719 5719 5720 5721 5721 5721 5721 5722 5723 5725 5727 5729 5730 5731 5733 5734 5735 5738 5741 5743 5744 5744 5746 5748 5750 5751 5751 5751 5752 5752
5730 5728 5726 5725 5724 5723 5721 5720 5719 5718 5717 5716 5715 5715 5715 5716 5717 5718 5718 5718 5719 5719 5721 5723 5724 5726 5727 5728 5730 5731 5733 5736 5739 5740 5740 5741 5744 5747 5747 5748 5748 5748 5749
5729 5726 5724 5723 5722 5721 5719 5717 5715 5713 5712 5711 5711 5712 5712 5713 5713 5715 5715 5715 5715 5716 5717 5718 5719 5721 5722 5723 5725 5727 5728 5731 5733 5734 5735 5737 5739 5741 5742 5743 5744 5744 5745
5727 5725 5723 5722 5720 5719 5717 5715 5712 5710 5708 5708 5708 5708 5709 5709 5710 5711 5711 5712 5712 5712 5713 5714 5715 5716 5717 5718 5720 5722 5724 5727 5728 5729 5731 5732 5734 5736 5737 5738 5739 5740 5740
5725 5723 5721 5720 5719 5716 5714 5712 5709 5709 5708 5707 5707 5706 5706 5706 5707 5707 5708 5708 5709 5709 5710 5710 5711 5712 5713 5714 5715 5717 5720 5723 5724 5725 5725 5727 5728 5730 5732 5733 5734 5734 5734
5723 5722 5720 5719 5716 5714 5712 5710 5708 5706 5705 5706 5703 5700 5702 5704 5704 5704 5704 5705 5705 5706 5707 5708 5708 5708 5708 5709 5710 5712 5714 5717 5718 5719 5720 5721 5723 5725 5726 5727 5728 5728 5728
5721 5720 5719 5717 5715 5712 5710 5709 5707 5704 5704 5705 5701 5696 5692 5693 5697 5701 5701 5701 5702 5703 5703 5704 5705 5705 5705 5705 5706 5707 5709 5711 5712 5713 5715 5716 5717 5719 5720 5721 5722 5722 5722
5719 5718 5717 5716 5714 5712 5709 5707 5706 5703 5700 5703 5704 5699 5691 5686 5689 5694 5697 5697 5698 5698 5699 5700 5701 5701 5701 5701 5701 5702 5704 5705 5707 5708 5709 5711 5712 5713 5714 5715 5716 5716 5716
5717 5717 5716 5714 5713 5711 5709 5707 5706 5704 5702 5699 5701 5702 5701 5697 5690 5686 5691 5694 5695 5695 5696 5697 5697 5697 5697 5697 5696 5697 5699 5700 5701 5703 5704 5706 5707 5707 5708 5709 5709 5710 5709
5716 5715 5714 5713 5712 5710 5708 5707 5705 5704 5702 5700 5698 5698 5698 5698 5697 5689 5684 5687 5690 5692 5693 5694 5693 5693 5693 5693 5692 5693 5694 5695 5696 5697 5698 5700 5701 5702 5702 5703 5703 5703 5703
5715 5714 5713 5712 5711 5709 5708 5707 5705 5704 5702 5701 5699 5698 5696 5693 5692 5691 5686 5685 5685 5687 5690 5690 5690 5690 5690 5689 5689 5689 5689 5690 5691 5691 5692 5693 5694 5695 5696 5696 5696 5696 5696
5712 5713 5713 5711 5710 5709 5707 5707 5705 5703 5702 5700 5699 5697 5697 5696 5695 5693 5688 5685 5685 5685 5686 5687 5687 5687 5687 5686 5685 5685 5684 5685 5685 5685 5686 5686 5687 5687 5688 5689 5689 5689 5689
5713 5713 5712 5711 5709 5708 5707 5706 5704 5703 5702 5700 5699 5697 5695 5695 5695 5693 5689 5685 5681 5681 5681 5681 5684 5684 5684 5683 5682 5681 5680 5680 5680 5680 5680 5680 5680 5680 5681 5681 5681 5681 5680
5714 5713 5712 5710 5708 5707 5706 5704 5702 5701 5700 5699 5697 5696 5694 5694 5693 5692 5690 5688 5681 5674 5674 5678 5679 5681 5681 5679 5679 5678 5677 5676 5676 5675 5675 5674 5674 5674 5673 5673 5673 5672 5672
5713 5712 5711 5709 5707 5705 5704 5702 5700 5700 5698 5697 5695 5694 5692 5691 5690 5689 5688 5687 5684 5678 5673 5676 5676 5678 5677 5676 5675 5674 5674 5673 5672 5670 5669 5669 5668 5667 5666 5665 5664 5664 5663
5712 5710 5709 5708 5706 5704 5702 5700 5699 5698 5696 5695 5694 5692 5689 5689 5686 5686 5685 5683 5681 5678 5671 5672 5674 5675 5673 5672 5671 5670 5670 5668 5667 5666 5664 5663 5662 5660 5659 5658 5657 5656 5655
5711 5710 5708 5706 5704 5702 5701 5698 5696 5695 5694 5692 5691 5689 5687 5686 5683 5682 5681 5679 5677 5675 5671 5666 5667 5668 5668 5668 5667 5666 5665 5664 5662 5661 5659 5658 5656 5654 5652 5651 5649 5648 5647
5709 5708 5706 5703 5701 5700 5698 5697 5695 5693 5692 5690 5689 5686 5684 5682 5679 5678 5677 5674 5673 5672 5669 5665 5662 5663 5663 5663 5661 5660 5660 5659 5658 5656 5655 5653 5651 5648 5646 5644 5642 5641 5640
5707 5706 5704 5701 5699 5697 5695 5694 5693 5691 5689 5688 5687 5684 5681 5679 5676 5674 5672 5670 5668 5666 5664 5661 5658 5657 5657 5657 5655 5652 5651 5652 5652 5651 5649 5647 5645 5643 5641 5638 5637 5635 5634
5704 5703 5701 5698 5696 5694 5692 5690 5689 5688 5686 5684 5683 5681 5678 5676 5673 5671 5668 5665 5663 5659 5657 5654 5651 5650 5649 5648 5646 5646 5644 5644 5645 5645 5643 5641 5639 5637 5635 5633 5631 5630 5628
5701 5699 5697 5694 5691 5690 5688 5687 5685 5683 5682 5680 5677 5675 5674 5671 5669 5666 5664 5662 5659 5655 5651 5648 5645 5642 5641 5641 5641 5640 5637 5635 5633 5637 5635 5633 5633 5631 5629 5627 5626 5624 5623
5696 5694 5692 5690 5687 5685 5684 5683 5681 5679 5677 5675 5673 5671 5670 5667 5664 5661 5659 5657 5655 5652 5649 5645 5640 5638 5636 5635 5634 5632 5629 5627 5626 5628 5627 5624 5625 5624 5624 5622 5620 5618 5616
5692 5690 5688 5686 5683 5681 5680 5679 5677 5675 5673 5671 5669 5667 5664 5661 5659 5656 5654 5651 5648 5646 5644 5641 5638 5636 5633 5631 5628 5625 5623 5622 5621 5621 5620 5615 5616 5615 5616 5614 5612 5610 5607
5689 5686 5685 5682 5679 5676 5676 5674 5672 5670 5667 5666 5664 5661 5658 5655 5653 5651 5648 5644 5641 5639 5638 5636 5633 5631 5628 5625 5622 5618 5615 5612 5609 5610 5610 5606 5606 5606 5606 5604 5603 5600 5597
5686 5683 5680 5678 5676 5673 5671 5669 5667 5664 5661 5659 5657 5655 5652 5649 5647 5644 5640 5637 5633 5631 5630 5628 5626 5624 5621 5618 5615 5611 5607 5603 5600 5599 5600 5597 5595 5593 5592 5593 5591 5589 5586